Tracking 29892 objects as of 21-Nov-2024
HD Live streaming from Space Station
objects crossing your sky now

OBJECT K

Track OBJECT K now!
10-day predictions


NORAD ID: 57013
Int'l Code: 2023-085K
Perigee: 491.4 km
Apogee: 501.0 km
Inclination: 97.5 °
Period: 94.4 minutes
Semi major axis: 6867 km
RCS: Unknown
Launch date: June 15, 2023
Source: People's Republic of China (PRC)
Launch site: Taiyaun Space Center, China (TSC)
Your satellite tracking list
Your tracking list is empty




NASA's NSSDC Master Catalog

Two Line Element Set (TLE):
1 57013U 23085K   24325.91618694  .00031818  00000-0  12515-2 0  9991
2 57013  97.4698  68.5971 0007011 251.7948 108.2526 15.25568638  9666
Source of the keplerian elements: AFSPC